Погода в Гамприне

Лихтенштейн     47°13′06″N   9°30′38″E
темп.,
°C
ветер,
м/с
пор.,
м/с
влажн.,
%
обл.,
%
осадки,
мм/ч
давл.,
гПа
погр.,
м
23 апреля, пт
пт2323:00+2ююз11976 0.0 102511
02:00+1ююз229618 0.0 102519
05:000ю11966 0.0 102512
08:00+3ююв11902 0.0 102693
11:00+8ссв22703 0.0 1024728
14:00+12ссв33462 0.0 10231192
17:00+12с32425 0.0 10221216
20:00+6сз11735 0.0 102310
24 апреля, сб
сб2423:00+3ююз22795 0.0 102622
02:00+2ю33795 0.0 102646
05:00+1ю33795 0.0 102646
08:00+5ю23675 0.0 1025118
11:00+13ссв11473 0.0 1021904
14:00+15ссв33425 0.0 10191736
17:00+15с33465 0.0 10191386
20:00+8ссв228267 0.0 102116
25 апреля, вс
вс2523:00+5ю22905 0.0 102222
02:00+4ю22905 0.0 102225
05:00+3ю22925 0.0 102221
08:00+6всв1178100 0.0 1022108
11:00+11ссв326096 0.0 1019701
14:00+14ссв325218 0.0 10181360
17:00+13с325122 0.0 10171138
20:00+7ссз11795 0.0 101814
26 апреля, пн
пн2623:00+4ююз2190100 0.0 101913
02:00+4ююз1191100 0.0 101810
05:00+3зсз0093100 0.0 101810
08:00+6всв1182100 0.0 1017128
11:00+11ссв2163100 0.0 1014631
14:00+13ссв2256100 0.0 1012875
17:00+14ссв3352100 0.0 1009910
20:00+8ссз117697 0.0 100812
27 апреля, вт
вт2723:00+7ююв2282100 0.0 100719
02:00+7ю2387100 0.0 100585
05:00+7ююз2385100 0.2 1005120
08:00+7ссз118598 0.3 1005185
11:00+10с226899 0.1 1002758
14:00+10с227796 0.3 1002605
17:00+7с2293100 0.5 1003302
20:00+6вюв119799 1.3 100375